Race Results for
Tour of the Catskills
Hunter, NY
(Event Information)
Road Race on 09/07/2008

Note: Ranking points are NOT upgrade points. An explanation of ranking points can be found here.


Men - Pro/Cat 1/2

 Place Points NameCity, StateTime USAC #BibTeam
1489.31Roger Aspholm   Haworth, NJ03:28:46 136195  Westwood Velo
2493.26Justin Lindine   North Ogden, UT00:01:29 205717  TARGETRAINING / U25 Elite
3497.20William Nowak   Wallingford, CT00:06:14 258778  TARGETRAINING / U25 Elite
4501.15Daniel Cassidy (1 - Cat1)   San Antonio, TX00:06:14 190683  CCB/Volkswagon
5505.10Peter Bradshaw (2 - Cat1)   Boston, MA00:09:41 120392  NEBC/Cycle Loft/Devonshire Dental
6509.04David Hoyle   Rocky Hill, CT00:16:17 223454  TARGETRAINING / U25 Elite
7512.99Amos Brumble IV   Westerly, RI00:16:17 5230  CCB/Volkswagon
8516.94J Gabriel Lloyd   Kutztown, PA00:22:54 202639  TARGETRAINING / U25 Elite
9520.89John McGill   Montpelier, VT00:22:54 101738  14 Onion River Sports
10524.83Kyle Peppo   New York, NY00:24:03 231787  19 CRCA/Jonathan Adler Racing
11528.78Austin Roach   Bloomfield, IN00:25:14 255885  21 Princeton University Cycling
12532.73Pascal Sauvayre   New York, NY00:26:49 64894  23 CRCA/Merrill Lynch
13536.67Adam St Germain   Burlington, VT00:29:45 193706  TARGETRAINING/FASTAR
14540.62David Costa   Roselle Park, NJ00:31:14 218866  11 Watchung Wheelmen
15544.57Adam Zimmerman   Highlands Ranch, CO00:31:14 248373  24 Max Power Cycling
DNFCameron Cogburn   Cambridge, MA 235379  10 Chris Cookies / Swan Cycles
DNFMatt Cuttler   Los Angeles, CA 266432  12 CRCA/Affinity Cycles
DNFAustin McLenithan   Cambridge, NY 252794  15 Farm Team Cycling
DNFKim Riseth   New York, NY 231315  20 CRCA / Jonathan Adler Racing
DNFAndreas Runggatscher   Monroe, NY 189842  22 Signature Cycles/DKNY

Men - Cat 3/4

 Place Points NameCity, StateTime USAC #BibTeam
1521.33Ernest Tautkus   Uncasville, CT02:17:07 107000  374 Exodus Road Racing
2522.43Peter Hurst   Norwalk, CT00:00:00 148404  334 Connecticut Coast Cycling
3523.53Lee Peters   Oakland, CA00:00:00 252197  355 UVM Cycling
4524.62Nick Pignatello   Cobalt, CT00:00:00 240810  357 Exodus Road Racing
5525.72Jonathan Nash   Pawling, NY00:00:00 276379  351 
6526.82James Stevens   Brooklyn, NY00:00:00 277525  370 GS Gotham/Toga
7527.92Aaron Wolfe   Cold Spring, NY00:00:00 213638  379 CRCA/SouthAfrica.net
8529.01Andrew Bernstein   Allentown, PA00:00:00 204817  303 Brooklyn Velo Force/GQ Racing
9530.11David Fierro   Gales Ferry, CT00:00:00 242328  320 Exodus Road Racing/Pools etc/Brumble Bik
10531.21Ben Reynolds   Annapolis, MD00:00:00 147430  362 Bayside Velo / Bike Doctor
11532.31James Walker   Elizabethtown, NY00:00:00 225529  377 Team Placid Planet
12533.40Patrick Clifford   Gardiner, NY00:00:00 236141  312 BICYCLE DEPOT New Paltz NY
13534.50Chris Chapman   Ridgewood, NJ00:00:00 166529  309 Westwood Velo
14535.60Bill Golembieski   Boulder, CO00:00:00 274222  323 ScottGrimshaw.Net/MaxPowerCycling.com
15536.70joseph holler   Providence, RI00:00:00 260758  331 Hollyloft / Kwik Fill
16537.80Daniel Barney   Fairport, NY00:00:00 230661  302 Mac 5 Bikes / GVCC
17538.89Nathan Piche   Hoosick Falls, NY00:00:00 277471  356 Farm Team Cycling
18539.99Elliot Hawkes   Stanford, CA00:00:00 275956  329 
19541.09Timothy Oakes   New York, NY00:00:00 201427  380 Champion System Racing
20542.19Shane Moran   Piermont, NY00:00:29 216570  348 Westwood Velo
21543.28Stefan Kusurelis   New York, NY00:00:29 271859  339 Cadence Cycling
22544.38Danny Habig   Massapequa, NY00:00:29 259066  327 
23545.48N/A (1 - Cat4)   New York City00:00:29 252717  375 CRCA/NYvelocity
24546.58Neil Cooper   New York, NY00:00:29 265214  313 CRCA
25547.67Jeff Hoover   Liverpool, NY00:00:29 247979  332 maxpowercycling
26548.77Cody Miller   Phoenix, AZ00:00:29 204196  347 Team Waste Management
27549.87Aaron Hall   Boston, MA00:07:32 274578  328 Harvard
28550.97Christoffel Prinsloo   Tappan, NY00:07:32 232344  359 CRCA/SouthAfrica.Net
29552.07Jason Schmidt   Los Gatos, CA00:08:27 231913  366 
31553.16Ira Blumberg   New York, NY00:09:33 264625  304 CRCA
32554.26Matthew Goedeke   Selkirk, NY00:09:33 271259  321 C B R C
33555.36Gino Scotto   Upper Brookville, NY00:09:33 267652  367 CRCA/SouthAfrica.net
34556.46Todd Brilliant   New York, NY00:09:33 116974  306 CRCA/Setanta
35557.55David Carr   New York, NY00:09:33 256699  308 CRCA/Setanta
36558.65Sean Groenewald   West New York, NJ00:09:33 212581  324 CRCA/SouthAfrica.net
37559.75Jay Vincent   Bethel, CT00:09:33 223649  376 Cycle Center Racing
38560.85Jimmy Andrello   New York, NY00:09:33 230311  301 Century Road Club Association
39561.94Stephen Sloan   Sidney, NY00:09:37 241757  368 ScottGrimshaw.net/MaxPowerCycling.com
40563.04Jesse Gutierrez   Charlotte, NC00:09:37 254666  325 DC Racing / Sebago Shoes / Mtn Outfitter
41564.14Benjamin Hughes   New York00:12:57 204305  333 CRCA/Merrill Lynch-Hincapie Sports
42565.24Paul Eisele   Andes, NY00:12:57 253966  317 Max Power Cycling
43566.33Bill Moss   New York, NY00:14:11 200118  349 CRCA/SouthAfrica.net
44567.43Joshua Storck   Brooklyn, NY00:15:59 267615  371 Brooklyn Velo Force / GQ Racing
45568.53Etsu Taniguchi   New York, NY00:20:51 237492  373 CRCA / Avenue A | Razorfish Cycling
46569.63Nathaniel Eng   Fremont, CA00:20:51 237552  318 CRCA / Avenue A | Razorfish Cycling
47570.73Michael Lenihan   Lake George, NY00:22:18 213656  341 Battenkill-United/anthemcycles.com
48571.82Jack Jefferies   Avon, CO00:24:28 229853  336 Organic Athlete / crca
49572.92Jonathan Leong   New York, NY00:24:28 269143  342 El Puente
50574.02Jordan Jan   Brooklyn, NY00:26:17 255942  335 Brooklyn Velo Force / GQ Racing
51575.12Tom Laskey   New York, NY00:26:17 177472  340 CRCA/Setanta
52576.21Barry Weinstein   Washington, DC00:28:20 274174  378 CRCA Jr. Development
53577.31Anthony Mazzella   New York, NY00:28:23 150407  345 Sanchez -Metro / CRCA
54578.41Russell Raymundo   Oakland Gardens, NY00:30:56 264669  361 
55579.51H Neal Reynolds   Severna Park, MD00:35:08 158852  363 Bike Doctor/Bayside Velo
56580.60sorin ciurea   New York, NY00:37:41 255193  311 New York Bicycle Racing Association
57581.70maurice osorio   Douglaston, NY00:42:35 271954  354 kissena cycling club
58582.80Jordan Strober   Winston-salem, NC00:52:51 229605  372 CRCA JrDev/ Orbea
59583.90Adam Rosenthal   New York, NY01:05:35 248088  364 CRCA/Oganic Athlete
854585.00Jeremy Dawkins   Gardiner, NY New Paltz 268228  315 The Bicycle Depot
DNFCarlos Martinez   Woodhaven, NY 216737  343 www.SpinCityTeam.net
DNFMatt Muney   Darien, CT 250265  350 Connecticut Coast Cycling

Men - Cat 5

 Place Points NameCity, StateTime USAC #BibTeam
1540.00Matthew Doran   Nyack, NY02:24:45 268390  161 RETRO VELO
2541.92Brian Donohue   Boltonlanding, NY00:03:39 281651  160 Battenkill-United
3543.85jeremy drowne   Saratoga Springs, NY00:03:49 261083  162 Battenkill-United
4Larry Altman   00:08:18  150 gmbc
5David Tacheny   00:10:40  175 NYVelocity.com
6549.62Philip Everett   New York, NY00:10:40 281036  165 CRCA/NYVelocity
7Terence Cordner   00:14:34  158 
8Pedro Furtado   00:14:34  166 signature cycles\dkny
9555.38Rich Burnley   Gansevoort, NY00:14:40 249140  153 Battenkill United
10Anthony Larocca   00:19:05  168 Fitness Concepts
11Chris Carey   00:20:17  155 NAD Racing
12Jeffrey Jenkins   00:20:39  167 
13563.08Evan Chalfin   New Rochelle, NY00:22:00 272603  156 CRCA/ NYVELOCITY
14565.00Michael Dimson   Bedford, NY00:26:17 254486  159 Yorktown Cycles
15Peter Manning   00:26:17  169 
16568.85Sam Strober   Yorktown Heights, NY00:26:17 266877  174 Yorktown Cycle
17570.77JASON ONEILL   Chappaqua, NY00:28:53 280574  170 CATSKILL MULTI SPORT e=cm2
18Peter Rasmussen   00:30:27  172 Windham Mountain Outfitters
19574.62charles braman   Greene, NY00:30:27 261132  151 tioga velo
20576.54James Brosnan   New York, NY00:37:55 266263  152 CRCA/NYVelocity
21Scott Husta   00:38:42  176 
22Jose Soriano   00:47:43  173 
23Kevin Maldonado   00:56:45  178 
24Robert Dutcher   00:57:45  163 MORE
25586.15Stephen Dutcher   Walton, NY01:07:25 268989  164 
26Luis Palacio   01:10:22  171 
27Steve Marshall Cohen   01:18:49  157 Elite
DNFDaniel Provencher     177 

Men - Master - MR - 30-99

 Place Points NameCity, StateTime USAC #BibTeam
1530.69Gregg Galletta   Dobbs Ferry, NY00:00:24 97363  44 CRCA - Merrill Lynch/Hincapie Sports
2536.33Christian Favata   Rosendale , NY00:00:24 135665  42 Alan North American Cycling Team
3541.96Kurt Gustafsson   Brooklyn, NY00:00:24 14451  45 CRCA / AXIS
4547.60Mark Miller   Hurley, NY00:02:18 56699  46 Table Rock (TRT)
5553.23Fernando Ferreira   Poughkeepsie, NY00:02:18 53209  43 bicycling magazine
6558.87Peter Ozolins   Ithaca, NY00:02:18 65486  47 ChrisCookies.com
7564.50Humberto Cavalheiro   Centeral Vally, NY00:02:18 192485  40 dkny\signature cylces
8570.14Jason Schreer (1 - Cat4)   Potsdam, NY00:06:12 275422  48 
9575.78Peter Dinolfo   Troy, NY00:06:13 112082  41 North Atlantic Velo/ClassBook.Com/Giant/
10581.41Anthony Settel (1 - Cat2)   Croton On Hudson, NY00:25:35 47197  49 Deno's Wonder Wheel
11587.05Kyle Wolfe   Cambridge, NY00:36:47 38789  50 TARGETRAINING

Men - Master - MR - 40-99

 Place Points NameCity, StateTime USAC #BibTeam
1481.00Troy Kimball   Austin, TX02:51:11 118576  77 Westwood Velo
2489.38John Funk   South Kent, CT00:00:00 12562  75 Cycle Fitness
3497.77Todd Cassan   Boulder, CO00:00:24 6406  72 Westwood Velo
4506.15Don Sproull   Auburn, NY00:00:24 210436  82 ChrisCookies.com/Swan Cycles/FLCC
5Albino Moita   00:02:18  80 dyny\signature cycles
6522.92David Faso   Cazenovia, NY00:02:18 11315  74 MaxPowerCycling.com
7531.31Timothy Voake   New York, NY00:03:33 269145  83 CRCA
8539.69Andrew Melnychenko   Alpine, NY00:03:46 52777  79 Maxpowercycling
9548.08Jackson Wandres   Brooklyn, NY00:06:13 46043  84 Deno's Wonder Wheels
10556.46Bruce Armentrout   Williamstown, MA00:08:53 243525  70 Battenkill United/Unicorr
11564.85Marc Cesare   Brooklyn, NY00:08:53 59874  73 CRCA/DKNY-Signature Cycles
12573.23J Craig Robertson   Williamstown, MA00:12:58 217468  81 
13581.62Greg Campi   Shrewsbury, NJ00:18:21 113096  71 3D Racing Team/Tom's Atlantic Cyclery
14590.00John Halloran   New York, NY00:32:49 262310  76 CRCA

Men - Master - MR - 50-99

 Place Points NameCity, StateTime USAC #BibTeam
1400.39Douglas O'Neill   West New York, NJ00:02:18 50217  107 Deno's Wonder Wheel
2419.72Andrew Ross   Mexico, NY00:02:18 229898  111 MaxPowerCycling.com
3439.05Mark Luzio   Brooklyn, CT00:02:18 83266  104 CYCLE FITNESS
4458.39Robert Meikle   Sayre, PA00:02:18 211727  106 Mystic Velo Club
5477.72Robert Roldan   Somerville, MA00:06:13 98318  110 everactiveonline/Workers Comp Solutions
6497.05Thomas Officer   Litchfield, CT00:06:14 45751  108 Cycle Fitness (last one boys!)
7516.38James Marshall   North Bennington, VT00:08:57 218450  105 Competitive Edge Racing Team
8535.71William Cantler   Brooklyn, NY00:09:02 200565  100 Deno's Wonder Wheel
9555.04Kenneth Grey   Saratoga Springs, NY00:23:00 279927  101 
10574.38Phillip Hershberger   Climax, NY00:54:54 66821  102 CBRC

Women - Cat 1/2/3/4

 Place Points NameCity, StateTime USAC #BibTeam
1458.01Silke Wunderwald   Hopkinton, RI02:39:47 236023  138 Independent Fabrication/Kempner
2468.26Evelyn Stevens   San Francisco, CA00:00:00 272861  137 CRCA / Radical Media
3478.52Elena Leznik   Fort Lee, NJ00:00:00 228861  133 CRCA/Radical Media
4Cheryl Rondeau   00:03:55  135 Independent
5499.02Donna McMahon   Farmingdale, NY00:06:15 264367  134 GBSC Babylon Bike
6509.27Britlee Bowman   New York, NY00:12:11 280476  126 
7519.53laura kozlowski   Boxford, MA00:12:17 262612  132 Velo Bella
8529.78Caryl Gale   Hoboken, NJ00:12:27 60259  129 CRCA-Comedy Central-Sids
9Jennifer Kendrick   00:15:05  131 
10550.28Laury Saligman   Montpelier, VT00:17:30 54458  136 Onion River Sports
11560.54Karen Franzen   Wethersfield, CT00:17:30 193702  128 CVC/Subaru of New England
12570.79stephanie busloff   New York, NY00:20:19 257246  127 CRCA/Avenue A/Razorfish Cycling
13Felicia Kearsley   00:27:18  130 

Report missing or incorrect license numbers

Volkswagen
Bonk BreakerSpyUSACDFShimanoSierra Nevada
UCI USA Cycling is the official governing body for all disciplines of competitive cycling in the United States. The 501c3, membership-based organization aims both to achieve sustained success in international cycling competition and to grow competitive cycling in America while delivering an exceptional customer experience.
View Children's Online Privacy Protection Policy
US Olympic Committee